Theta_e
327 328 328 328 329 329 329 330 332 334 334 335 335 336 337 335 336 335 336 336 332 329 328 325 324 324 325 325 324 326 327 330 329 331 330 329 330 329 330 330 331 331 331 331 332 333 333 334 336 335 336 336 336 337 338 338 337 336 334 335 334 333 334 337 337 335 330 330 333 332 333 336 334 336 336 336 333 333 333 333 333 334 334 334 336
324 324 326 327 326 329 328 328 330 330 331 333 333 334 335 335 335 335 335 333 331 330 328 326 326 324 324 324 324 322 322 324 326 329 328 329 328 328 328 328 329 330 330 331 330 330 331 331 332 332 333 335 336 337 338 336 336 336 334 333 334 331 331 334 335 333 329 326 327 327 329 333 331 332 333 334 334 334 335 334 335 334 332 334 336
324 323 323 324 326 327 327 327 329 331 332 331 333 333 334 334 334 336 333 332 331 331 328 326 326 328 326 324 323 323 328 329 326 325 326 324 327 326 326 327 326 328 329 329 329 328 330 330 331 331 333 334 336 337 336 335 337 335 335 334 332 332 332 334 337 335 328 332 331 326 324 322 327 328 332 331 331 331 334 335 334 334 333 335 337
324 323 322 322 324 325 326 326 327 329 330 330 330 331 332 331 334 334 333 332 331 331 327 329 329 331 332 330 329 326 324 325 325 325 324 324 324 326 327 328 327 328 327 327 328 327 329 329 330 330 331 334 336 333 333 332 334 333 335 333 332 329 326 332 334 334 332 330 323 324 325 324 319 323 326 329 333 333 334 335 334 333 334 336 338
323 325 324 323 322 323 324 326 327 327 329 329 329 330 330 330 333 333 332 331 330 330 330 331 329 328 328 329 327 325 324 322 323 322 324 324 324 326 326 328 327 326 327 327 325 326 326 328 328 330 330 330 330 329 330 331 332 334 332 331 331 330 326 329 330 334 333 335 327 323 322 320 320 324 326 327 332 330 332 334 333 334 334 335 336
321 324 325 324 323 323 324 325 325 326 327 329 330 330 330 329 333 332 330 331 329 330 331 327 324 324 322 320 317 318 319 319 319 320 321 322 321 325 326 327 326 326 326 326 326 326 326 326 328 327 329 328 328 327 327 326 326 327 330 332 331 331 327 326 328 333 333 332 333 330 328 320 322 325 323 319 331 332 331 330 332 335 336 336 337
319 321 324 325 325 323 323 324 324 324 326 329 330 330 329 330 333 331 330 330 330 330 330 326 325 323 322 320 319 318 317 319 324 324 324 322 324 325 325 328 326 327 327 327 326 326 326 326 327 326 326 327 327 326 326 326 323 324 327 326 327 328 328 327 326 326 329 331 331 332 330 329 329 324 320 322 317 328 328 327 331 332 334 334 334
315 318 320 323 325 324 323 324 324 324 327 328 329 329 328 330 331 330 329 329 329 330 329 326 324 323 322 320 319 318 319 320 322 325 326 325 324 325 326 326 327 326 326 325 326 326 326 326 326 327 325 325 324 325 325 325 326 326 327 327 326 325 326 324 323 326 325 326 329 329 329 328 328 328 328 324 321 318 322 326 326 331 332 334 334
313 314 317 320 322 325 325 325 325 325 326 327 327 328 328 331 330 331 329 329 329 330 328 326 325 324 322 321 318 319 322 321 321 323 322 325 325 325 325 325 326 327 325 324 324 324 325 325 326 325 323 322 322 322 324 325 326 326 326 326 325 324 324 324 323 321 323 322 323 324 324 325 325 326 328 328 322 320 320 321 323 327 330 333 336
311 311 314 317 321 324 327 327 325 325 327 328 327 327 328 330 329 329 328 327 329 330 328 326 326 326 322 321 320 319 319 320 320 321 323 324 324 325 324 324 324 323 323 323 321 319 320 321 320 320 320 319 318 319 320 321 322 323 324 325 326 325 324 324 322 322 322 322 322 322 320 320 321 322 323 322 324 325 317 317 321 320 319 328 333
309 309 311 313 319 323 325 325 325 326 328 326 326 325 327 329 328 327 327 326 328 328 327 326 326 327 323 322 322 321 320 320 320 321 321 322 323 324 324 323 323 321 321 322 320 320 321 321 320 320 320 319 317 317 319 317 319 320 320 321 322 322 322 323 322 322 322 321 321 320 318 318 318 317 318 320 320 320 318 317 318 319 318 320 327
310 310 310 312 314 320 324 324 324 325 326 325 325 325 326 327 327 326 326 326 328 328 327 326 326 326 325 326 323 323 322 320 320 320 322 322 322 322 323 323 322 321 320 319 321 322 321 320 320 320 319 319 317 318 319 319 319 319 319 319 319 320 320 319 320 319 320 319 319 319 319 319 319 318 318 318 318 318 318 317 316 317 318 320 322
311 311 311 312 315 319 321 322 323 324 324 324 324 324 325 325 326 325 325 325 327 327 326 327 327 327 325 327 325 325 323 321 320 321 322 320 321 321 322 321 321 320 318 319 320 322 321 321 320 318 318 319 318 317 318 318 318 318 318 319 319 318 318 318 316 318 317 317 316 318 317 318 317 318 318 318 318 318 317 314 315 316 314 316 317
312 311 312 314 317 318 320 320 321 323 324 323 323 324 324 325 326 324 324 326 327 327 327 326 327 327 327 328 327 326 325 323 321 321 322 320 321 321 322 321 321 322 320 319 321 321 321 322 321 320 319 319 318 319 319 318 319 316 317 317 317 317 318 318 317 318 317 316 316 315 316 314 315 317 317 317 316 314 313 314 314 313 314 311 314
312 314 314 315 318 320 320 321 322 323 323 323 323 323 324 323 322 323 324 326 326 326 327 326 325 327 328 328 328 328 327 324 321 322 324 321 322 322 321 322 321 322 322 321 321 322 323 322 321 320 319 319 318 318 317 318 318 317 318 318 318 317 317 317 316 317 316 315 315 315 314 315 314 313 313 315 314 315 314 314 312 309 309 311 311
312 313 316 318 319 320 321 322 322 322 323 323 323 323 323 321 323 324 324 326 326 325 325 326 326 327 329 329 329 329 327 326 324 323 324 324 323 322 321 323 322 324 324 323 322 323 322 322 321 320 319 319 319 318 317 316 317 316 316 317 316 316 317 317 316 317 316 315 315 315 314 313 314 312 313 313 312 314 314 314 313 311 307 305 310
311 311 313 317 320 320 320 320 321 322 322 322 323 323 323 323 324 324 324 326 324 325 326 326 327 327 328 329 329 329 328 327 325 326 326 326 324 323 322 323 324 324 324 325 323 323 323 323 322 321 320 319 319 318 317 317 317 317 316 316 316 316 316 315 316 316 315 316 314 314 314 314 313 314 313 313 314 314 314 313 313 310 311 307 305
312 312 312 314 317 319 320 321 321 322 322 323 323 324 324 324 324 323 322 323 323 324 325 326 326 327 328 328 328 329 329 329 328 328 328 326 324 323 323 323 324 324 326 325 325 324 323 322 322 321 321 319 318 318 317 316 317 315 316 315 315 316 315 315 314 314 314 314 313 313 314 313 314 314 314 313 314 314 313 313 314 313 313 309 308
310 311 311 311 312 316 318 319 318 320 322 323 323 324 325 326 326 325 323 322 322 322 323 325 326 325 326 326 328 328 329 329 329 329 329 326 324 323 322 323 326 324 325 325 324 323 323 322 322 321 320 319 318 318 317 317 316 315 315 314 315 315 313 313 313 313 313 313 312 312 312 312 312 314 314 315 314 313 313 313 313 314 313 313 310
308 309 310 310 310 311 313 316 318 319 321 322 322 322 321 323 324 324 325 324 322 322 324 324 324 324 325 327 328 327 327 327 329 329 327 326 324 323 323 323 324 324 324 324 323 322 323 322 321 320 320 319 318 318 317 317 317 316 315 314 314 313 312 312 311 312 310 312 311 311 311 310 311 310 313 312 312 313 313 311 312 313 313 313 312
308 309 310 310 312 312 312 314 315 316 317 319 321 322 323 323 322 322 323 323 324 324 323 322 323 322 325 326 326 327 327 327 328 329 328 327 326 325 324 324 324 323 323 323 322 322 321 322 321 320 319 319 318 318 318 317 316 315 314 314 312 312 311 311 311 311 310 310 308 309 309 311 312 311 311 311 311 310 311 312 311 310 310 312 311
308 308 309 309 310 311 312 312 313 313 312 312 314 317 319 321 321 322 321 321 322 322 323 323 323 323 324 325 325 326 327 327 327 328 328 326 326 325 326 324 324 323 322 322 321 322 322 322 320 320 319 318 318 317 317 316 315 314 314 314 313 311 310 310 310 309 310 309 310 309 307 309 310 308 311 309 309 309 308 309 309 311 309 310 312
307 308 308 308 309 309 309 310 311 312 311 311 311 312 313 315 316 318 320 321 322 322 323 324 324 324 325 324 324 324 325 327 327 326 327 326 326 326 325 325 323 323 322 322 321 322 322 321 321 320 319 318 317 316 316 315 314 314 312 313 312 312 311 310 310 308 307 308 309 309 309 309 310 309 309 311 311 310 310 308 309 309 309 310 309
307 308 308 307 307 308 307 307 307 309 310 310 310 310 310 310 310 309 311 314 318 322 322 323 323 324 324 325 325 324 324 325 326 326 326 327 325 325 325 324 323 323 322 322 321 321 321 321 320 320 319 318 317 316 315 315 314 313 312 311 311 311 311 310 308 308 307 307 308 308 308 308 309 307 308 307 308 310 310 309 309 310 310 309 311
306 307 307 307 307 306 306 306 307 307 308 309 309 309 309 310 309 309 309 311 312 315 320 322 324 323 323 323 324 324 324 325 325 326 326 326 326 325 325 323 323 322 322 322 321 322 321 320 320 319 319 318 317 316 315 314 314 314 312 311 310 310 310 309 309 308 307 308 307 307 307 307 307 307 307 307 307 307 306 306 306 306 307 308 309
306 306 307 306 306 306 306 307 306 307 307 308 308 308 309 309 309 309 307 308 309 311 311 316 321 323 323 323 324 324 324 325 326 327 326 326 325 325 324 324 323 322 323 322 321 321 320 319 319 320 319 318 317 316 314 314 313 313 312 311 311 310 309 308 308 307 306 307 307 306 306 306 306 306 306 307 308 307 307 307 307 306 306 306 307
304 305 305 306 306 306 306 306 306 307 307 308 307 307 308 309 309 309 309 309 310 311 310 310 312 316 321 323 323 324 325 325 325 326 326 326 325 325 324 323 323 322 322 322 322 321 321 320 319 320 318 318 316 315 314 314 313 312 311 310 310 310 309 308 306 305 305 306 305 305 305 306 306 306 305 306 307 307 307 307 307 307 307 307 306
304 304 304 304 305 306 306 307 306 306 306 306 307 307 308 309 308 308 309 310 310 311 310 310 311 311 312 316 319 322 324 324 325 325 326 326 326 325 324 324 323 322 322 322 321 319 320 319 319 319 318 318 316 314 314 313 312 312 311 310 309 308 307 306 306 305 305 304 304 304 304 304 304 305 306 306 306 305 305 306 307 307 307 306 306
302 303 303 303 303 305 306 306 305 305 305 306 306 307 308 309 309 309 309 308 308 309 309 309 310 311 312 312 314 316 320 321 322 323 324 324 325 325 324 323 323 322 323 322 321 319 319 319 319 319 317 316 315 314 314 312 311 311 311 309 308 305 305 304 304 304 304 303 303 304 303 303 303 299 297 297 298 298 299 300 302 304 305 304 305
301 301 302 303 303 304 305 305 305 305 305 304 305 305 306 307 308 308 308 308 308 308 307 307 307 308 310 311 313 315 316 319 321 322 322 323 323 324 324 323 322 322 322 321 320 320 319 319 318 317 316 315 314 314 307 301 304 310 309 306 306 305 304 303 303 303 303 303 303 303 304 299 300 298 297 295 294 294 296 299 300 302 302 303 303
300 301 301 302 303 303 303 304 304 305 305 305 306 305 305 306 307 306 306 307 307 307 307 307 307 307 308 310 312 314 316 317 319 321 322 322 323 323 323 322 322 321 321 319 319 319 319 318 317 315 314 314 313 307 294 294 294 297 305 306 305 304 303 302 302 302 302 302 302 301 303 302 302 300 300 294 293 293 293 293 294 295 297 299 300
299 300 301 301 301 302 302 303 303 304 304 304 305 304 304 305 305 305 305 306 307 307 306 306 306 307 308 308 309 310 312 315 317 318 320 321 322 321 321 322 321 321 320 319 318 318 317 317 317 315 314 313 310 296 292 292 294 294 297 304 304 303 302 302 302 301 301 301 301 301 302 302 303 302 300 300 298 294 292 292 292 292 292 292 293
299 299 300 300 300 301 303 303 303 303 303 304 304 304 304 305 305 306 306 306 306 306 306 307 307 306 306 308 308 308 310 312 315 318 319 320 319 319 319 320 320 321 321 319 318 316 316 316 315 313 312 310 304 292 292 292 292 292 292 298 303 302 301 302 302 301 301 301 301 301 301 301 302 299 299 301 302 302 296 292 292 292 292 292 291
300 300 300 301 302 303 303 304 304 305 305 306 306 305 306 307 306 306 306 306 305 306 306 306 307 306 306 307 307 308 309 310 313 317 318 318 318 318 319 319 320 320 319 318 318 317 316 315 314 313 311 308 302 293 291 291 292 291 290 294 302 302 302 301 300 301 301 301 301 300 299 300 301 301 302 301 301 301 300 300 301 301 301 299 293
301 301 302 302 302 303 303 303 304 304 305 305 304 305 306 305 306 305 305 306 306 305 306 306 306 307 307 308 308 308 308 309 311 313 316 317 317 318 317 317 318 318 318 317 316 315 314 313 312 311 309 305 300 291 291 291 291 290 289 293 303 302 301 302 302 302 301 301 301 301 301 300 300 300 301 299 299 298 299 299 299 299 300 300 301
301 300 301 301 301 301 302 303 304 303 303 304 304 305 305 305 305 305 305 305 305 305 305 306 306 307 308 308 309 308 309 310 310 312 314 315 316 316 316 317 317 317 316 316 315 314 312 311 310 308 305 302 298 290 290 290 290 290 289 298 301 301 301 301 301 301 301 301 301 300 300 300 300 299 296 291 294 297 297 297 296 298 298 299 300
300 301 301 302 303 302 303 304 304 304 303 304 304 305 305 305 304 304 304 304 305 304 304 305 306 307 308 309 309 308 308 309 310 310 312 314 315 315 315 316 315 315 314 313 313 312 311 309 307 305 304 300 296 292 290 290 290 289 292 299 301 301 301 301 301 301 301 301 301 300 300 299 299 299 294 290 290 291 296 296 296 296 297 297 298
299 300 300 301 301 302 302 302 302 302 303 304 305 305 305 304 304 304 303 303 303 303 304 305 306 307 308 308 309 308 308 309 310 311 311 314 315 316 315 316 314 313 312 312 312 309 308 306 304 302 301 299 296 293 290 290 290 289 293 300 301 300 300 300 300 301 301 301 301 299 298 298 298 299 292 289 289 293 295 295 295 295 295 295 296
299 299 299 300 301 301 301 301 302 302 303 304 304 304 303 303 304 304 304 303 304 304 304 305 306 307 308 308 308 309 308 309 309 311 312 313 314 314 314 315 314 313 311 309 307 306 304 303 303 302 300 300 297 294 290 290 290 289 295 300 299 299 299 299 299 298 300 300 300 299 297 297 297 296 290 290 289 291 295 294 294 293 293 293 295
299 300 300 300 300 300 301 301 301 302 303 303 303 303 303 303 303 304 303 303 304 304 305 306 307 308 308 308 309 309 309 309 310 311 313 314 314 313 314 314 313 311 308 306 304 303 302 302 302 301 301 301 299 296 294 289 290 290 291 297 298 296 297 297 298 298 298 299 299 299 298 292 290 290 289 288 288 288 293 294 293 292 291 291 295
298 299 298 299 299 299 299 300 301 302 303 303 303 302 302 303 303 303 303 304 305 305 305 306 307 308 308 308 309 309 309 310 311 312 313 313 313 312 313 312 308 306 305 303 302 302 301 300 300 301 300 300 301 299 295 289 290 290 289 290 296 297 298 298 298 297 297 297 297 297 298 294 289 289 288 288 288 288 289 292 292 291 292 292 291
299 298 298 299 299 301 301 301 302 302 303 303 302 302 302 303 303 303 304 305 305 305 306 306 307 307 307 307 308 309 309 310 311 312 312 311 312 312 311 310 306 304 303 302 301 300 299 298 299 300 300 300 298 297 298 290 289 289 289 289 295 298 297 296 295 295 295 296 296 296 298 294 287 288 287 288 288 288 288 291 291 288 288 287 290
298 298 298 298 298 298 298 300 301 302 302 303 303 302 302 302 302 304 305 305 306 306 306 306 306 306 307 307 307 308 309 310 310 311 311 311 311 309 307 306 304 303 302 301 300 300 299 297 297 297 299 299 299 296 293 295 289 290 289 289 289 292 290 295 295 295 295 295 297 297 298 291 287 287 288 287 288 287 288 290 288 287 287 287 288
297 298 298 298 298 298 299 300 301 302 302 303 302 301 301 302 302 305 305 305 306 306 306 306 306 306 306 306 306 307 308 309 310 310 310 309 308 305 304 303 303 302 300 299 299 298 298 297 297 297 298 299 299 299 292 291 293 287 288 288 287 287 288 294 295 295 295 296 297 298 295 288 288 287 287 288 288 288 290 288 287 287 287 287 290
296 296 297 298 298 299 299 300 301 302 302 302 303 301 302 302 304 305 305 305 305 305 306 305 306 306 305 305 306 307 308 308 309 309 307 304 303 302 300 300 301 300 299 298 298 298 297 297 297 297 297 297 299 297 297 291 289 290 288 288 287 287 287 287 293 296 296 296 292 288 288 288 288 288 287 287 288 288 288 287 287 287 288 290 290
298 298 298 298 299 299 299 299 300 302 302 303 303 303 301 302 304 304 305 305 305 305 305 305 305 305 305 305 305 306 307 308 308 307 305 304 302 300 299 299 300 300 299 298 297 297 297 297 297 295 294 296 297 297 298 299 294 293 292 288 287 288 289 289 290 293 290 289 288 288 287 287 288 289 292 292 292 292 289 288 287 288 291 290 290
297 298 298 299 299 299 299 299 300 301 302 302 303 303 303 303 303 303 304 304 304 304 303 304 304 305 305 305 305 305 305 305 305 304 304 303 302 301 301 300 300 299 298 297 296 297 296 294 293 293 294 295 295 296 297 297 298 297 298 297 297 296 290 289 294 296 293 294 292 291 291 289 288 287 287 288 288 289 289 291 291 292 292 292 291
299 300 300 300 299 299 299 299 300 301 302 302 302 302 303 303 303 303 304 304 303 303 303 304 305 305 305 305 305 296 299 303 302 302 301 300 300 301 299 298 296 297 297 297 298 296 293 293 293 294 294 294 295 295 296 296 296 296 297 296 296 296 296 296 295 295 294 292 292 290 290 292 292 292 292 292 292 292 291 291 291 291 291 291 291
298 299 299 299 298 298 298 299 299 301 301 301 301 302 302 303 303 304 304 303 302 301 303 304 305 305 305 305 304 302 302 301 301 301 302 301 300 299 298 298 300 299 298 296 295 295 294 294 294 293 293 293 294 294 295 289 292 288 289 293 294 294 294 293 291 287 289 291 291 291 290 290 290 289 289 289 290 290 290 291 291 291 291 291 291
298 299 299 299 298 298 298 298 299 300 301 301 301 302 303 304 304 304 304 303 303 303 303 304 304 304 304 303 302 300 301 300 300 297 295 293 288 291 297 299 296 291 292 292 292 295 295 295 295 295 296 294 292 295 286 286 287 287 287 286 287 286 286 288 287 286 287 289 289 289 289 289 288 289 288 288 288 288 288 288 289 288 289 289 289
298 298 297 298 298 298 298 298 299 300 300 300 300 302 303 304 304 304 305 304 304 303 302 303 303 302 302 302 301 300 300 300 298 296 295 294 295 292 287 287 289 289 289 289 289 289 289 291 294 292 291 286 286 286 286 287 287 287 286 286 286 287 286 287 286 287 289 289 289 288 288 288 288 288 288 288 288 288 288 288 288 288 289 288 288
Wind_Speed
9 10 11 12 12 9 8 7 7 7 7 8 8 8 9 8 8 8 7 7 7 6 5 4 4 3 3 3 3 3 2 3 2 3 3 4 3 3 2 2 2 1 0 1 1 1 1 2 4 4 4 4 4 5 4 5 6 5 6 6 7 7 6 5 4 3 3 2 2 4 4 5 9 10 9 7 8 7 7 7 7 7 7 7 7
9 10 11 12 11 10 9 7 9 10 9 9 10 10 9 9 9 8 8 8 7 6 5 4 3 3 3 4 3 4 4 3 3 3 3 3 3 3 2 2 2 2 2 1 1 1 1 2 2 2 3 4 2 2 3 3 5 5 6 5 6 7 6 6 5 4 2 4 3 1 4 5 6 8 9 8 8 8 7 7 7 7 8 8 6
10 10 11 12 13 12 10 9 9 11 10 10 10 10 10 9 9 9 8 8 8 7 5 5 4 2 2 4 2 4 4 4 4 4 3 4 3 3 3 2 2 3 3 3 2 1 1 1 2 2 2 3 4 4 4 3 2 4 6 6 5 5 5 6 6 5 3 3 2 2 3 3 4 5 5 8 8 9 7 7 7 8 8 7 6
13 12 12 12 14 13 12 11 11 11 10 10 11 12 9 10 9 10 9 8 8 7 6 5 5 4 3 4 3 2 4 4 4 4 4 4 4 4 4 3 3 3 3 3 3 3 2 2 1 1 3 4 3 4 4 4 3 4 2 4 4 4 5 4 4 6 4 4 4 4 0 1 2 3 3 5 6 8 9 9 8 7 8 8 6
12 11 12 13 15 15 16 14 12 12 12 12 12 12 9 12 11 11 9 9 8 8 7 6 7 6 5 5 4 5 4 4 4 4 4 4 4 4 4 4 4 4 4 3 4 3 3 2 3 3 3 2 1 3 4 4 2 3 4 4 3 3 4 2 4 3 4 2 2 1 2 4 2 1 2 3 2 5 5 7 8 7 7 6 6
11 13 14 15 15 14 14 14 14 13 13 12 12 12 11 11 10 11 9 9 8 9 8 7 7 7 7 6 6 5 5 4 4 4 4 3 4 4 5 4 4 4 3 4 4 4 3 3 3 3 4 3 3 3 4 4 3 3 3 2 2 1 4 5 4 3 1 0 1 2 1 2 3 1 2 1 2 2 4 4 6 4 5 5 5
10 11 11 12 14 14 15 15 16 15 14 12 11 12 13 12 11 12 10 9 8 9 9 8 8 8 8 7 6 6 5 4 3 4 4 4 4 4 4 4 4 4 4 4 4 4 4 3 3 3 4 3 4 4 4 3 3 3 2 2 2 2 4 1 4 4 4 3 1 1 2 2 3 3 3 3 4 1 5 7 4 2 2 2 4
8 10 12 13 13 15 16 16 15 14 13 12 12 12 14 13 12 12 10 10 9 9 10 9 8 8 8 7 6 5 4 5 5 5 4 4 5 5 5 4 4 5 4 4 4 4 4 4 4 4 4 4 4 4 4 4 4 4 4 3 3 3 3 4 3 3 1 3 2 2 1 0 2 3 4 3 4 4 3 3 10 4 5 3 4
8 9 10 13 14 14 13 13 14 13 13 13 13 13 13 12 12 12 11 11 11 11 10 10 9 8 8 7 6 5 5 5 5 5 5 5 5 4 4 5 5 4 4 5 5 5 4 4 4 4 4 4 4 5 5 6 5 5 4 4 4 4 3 2 2 2 2 3 2 1 2 2 2 3 1 2 4 5 4 6 3 3 7 5 2
8 11 11 10 12 13 13 13 14 14 13 12 12 12 12 11 13 14 13 11 10 12 11 11 10 8 9 8 8 7 6 5 5 6 5 5 6 5 5 4 5 5 5 6 6 6 6 6 5 5 5 5 5 6 6 6 5 5 5 5 5 5 4 4 4 2 2 1 2 2 3 3 4 3 3 2 3 5 4 5 5 5 4 2 1
7 8 9 10 8 9 11 13 13 13 11 13 12 13 13 12 13 14 13 11 11 12 12 12 11 10 9 9 9 8 8 6 6 6 6 6 6 6 5 5 5 6 6 6 6 6 6 6 5 6 5 5 5 5 4 5 5 5 5 5 5 4 4 5 4 3 2 2 1 2 2 2 3 4 4 4 5 5 5 6 6 6 5 5 4
7 7 7 8 9 9 9 11 12 13 12 13 11 12 13 12 12 14 13 13 11 12 13 12 11 11 10 10 10 9 9 7 7 7 7 7 6 6 5 5 5 6 6 6 6 6 6 6 6 6 5 5 5 4 4 5 5 4 4 4 4 5 4 3 4 4 3 3 2 2 2 1 1 2 2 2 3 4 5 6 6 6 6 5 3
6 5 4 5 8 10 11 11 12 13 13 14 13 12 12 12 14 15 15 15 13 13 13 13 12 11 10 10 10 8 9 8 7 6 6 6 6 6 6 6 6 6 6 6 7 7 6 6 6 5 5 5 5 5 5 5 5 5 5 5 5 5 4 4 4 4 3 2 2 1 1 1 1 1 2 2 3 4 5 6 6 6 6 7 7
6 4 2 1 5 7 9 10 10 10 12 13 13 12 12 12 14 15 15 15 13 13 13 13 12 11 10 9 8 8 8 8 7 7 7 6 5 6 6 6 6 6 7 7 7 7 6 6 6 6 6 6 5 5 5 5 5 5 5 5 5 5 5 5 5 4 3 3 1 0 1 0 1 1 2 2 3 3 4 4 6 6 6 8 7
7 6 5 3 3 4 6 7 7 7 9 11 11 12 11 11 13 14 14 14 14 14 13 13 11 11 9 8 8 7 7 7 7 7 8 7 6 7 6 6 6 6 7 7 8 6 6 6 6 7 7 6 6 5 5 5 4 4 5 5 4 4 4 3 4 3 3 3 2 1 1 0 1 1 2 3 3 3 4 4 4 6 6 6 7
7 7 7 6 5 4 5 5 5 7 9 8 10 10 10 12 12 12 13 13 13 13 13 13 12 10 10 10 9 8 7 7 7 7 7 8 7 7 7 7 6 7 7 8 8 7 7 7 7 7 7 7 6 6 5 5 4 4 4 4 4 3 4 4 3 3 3 3 2 1 1 1 1 1 3 1 3 3 4 4 4 4 6 7 5
8 8 7 7 7 6 6 4 4 6 7 8 9 10 11 12 10 11 11 10 11 11 11 11 10 10 10 10 9 9 9 9 8 9 9 8 8 8 7 8 7 7 7 8 9 8 8 8 7 8 7 7 6 6 6 6 5 4 4 4 4 4 3 4 3 3 3 1 2 2 3 1 1 2 2 3 3 3 4 4 5 5 4 6 6
10 10 9 9 8 8 7 6 4 3 4 6 7 7 9 10 9 10 10 9 10 10 10 10 11 10 9 10 11 10 9 10 9 9 9 8 8 8 7 7 8 8 8 8 9 9 8 9 8 8 7 7 7 6 6 7 6 5 5 5 4 4 3 3 3 3 2 2 2 2 2 1 3 3 2 3 3 3 4 4 4 5 5 6 6
9 10 10 9 9 10 8 8 8 6 5 4 2 3 4 5 6 7 9 9 8 8 9 8 10 8 9 10 10 10 10 9 9 9 9 9 10 9 9 8 8 9 9 9 10 10 9 9 8 8 7 7 7 6 6 6 6 6 6 5 5 4 3 3 3 2 2 1 1 1 1 1 2 2 2 2 2 3 4 4 4 5 5 5 7
8 9 10 10 10 11 10 9 10 9 8 7 5 2 1 3 4 4 5 7 8 8 8 9 9 9 9 8 10 10 10 9 9 9 9 10 11 11 10 10 9 9 9 11 10 11 10 10 9 8 8 8 7 7 6 6 6 5 5 5 5 5 5 4 3 2 2 1 1 1 0 2 2 3 2 2 3 2 3 5 5 5 5 5 6
8 9 10 11 11 11 11 10 10 10 9 8 7 6 4 1 2 4 5 5 6 7 8 8 8 10 10 10 10 10 10 9 9 8 9 9 10 10 10 10 10 10 10 11 11 11 11 11 11 10 10 9 8 7 6 6 5 5 4 5 6 5 5 4 3 4 3 1 1 1 1 1 1 3 3 3 3 3 4 4 4 5 5 5 6
8 9 10 10 11 12 11 11 11 11 11 10 9 9 9 5 2 1 1 4 6 7 7 7 8 8 10 11 11 10 9 9 9 9 9 9 9 9 10 10 11 11 12 12 12 11 11 11 10 11 10 10 9 8 7 6 5 6 6 4 5 5 4 4 3 2 3 2 1 1 1 1 2 3 3 5 4 3 4 5 4 4 5 5 5
7 8 9 10 10 11 12 13 13 12 11 11 11 10 8 6 7 7 5 2 1 4 5 7 8 8 9 9 10 11 11 11 11 10 10 10 9 9 9 10 10 10 12 12 12 12 12 12 11 11 10 10 10 9 7 7 6 7 6 5 5 4 4 4 3 2 1 1 2 1 1 1 1 3 3 4 4 5 5 5 5 5 6 6 7
6 7 8 8 9 9 9 10 10 10 11 11 11 10 9 7 8 9 9 8 6 3 3 3 6 7 7 7 8 10 12 12 11 10 11 10 9 9 9 10 11 10 11 12 13 13 13 12 12 11 11 10 10 9 9 8 8 8 7 7 6 5 4 3 2 1 0 1 1 1 1 1 1 3 3 3 4 4 4 5 6 6 6 7 7
6 7 8 8 9 9 9 9 9 9 10 9 9 8 7 7 7 8 8 8 8 7 6 3 4 5 6 6 7 9 12 13 12 9 10 10 10 9 8 10 10 10 11 11 12 13 13 14 12 13 12 12 11 10 10 9 8 8 7 6 6 5 4 3 2 1 2 2 2 2 2 2 2 3 3 3 3 5 5 6 6 6 7 7 6
5 6 7 8 8 8 8 8 7 7 7 7 7 7 7 7 8 8 8 8 8 8 8 7 6 5 4 5 7 10 12 14 14 12 11 10 10 10 10 9 10 11 11 11 12 11 11 13 13 13 13 12 12 11 11 10 9 8 7 6 5 5 4 3 3 2 1 1 2 2 2 3 3 4 4 3 4 6 5 6 7 7 7 7 8
5 5 5 6 8 8 8 8 7 7 6 6 6 6 6 6 7 8 8 8 9 9 8 8 8 7 5 5 8 10 9 11 11 11 10 11 11 11 11 11 10 11 12 12 12 13 11 12 13 13 13 13 12 11 10 10 9 9 8 7 6 5 4 3 2 2 1 1 2 2 2 3 4 4 4 5 5 6 5 7 7 7 7 7 7
4 4 5 6 7 7 7 7 7 6 6 6 6 6 6 6 6 6 7 7 5 6 6 6 5 6 5 5 6 6 8 9 9 9 9 10 11 11 11 11 10 12 12 13 13 14 13 13 13 13 12 11 11 11 10 10 9 8 7 7 6 4 3 3 3 2 2 1 1 2 2 2 3 4 4 5 6 6 6 7 7 7 7 8 8
4 4 5 5 6 6 6 6 6 6 6 6 5 5 5 5 5 5 4 4 3 2 3 4 4 4 5 7 7 7 7 8 8 9 9 10 11 11 11 11 10 11 10 12 13 14 14 14 13 13 12 11 10 9 9 9 9 8 7 6 5 5 4 3 3 3 2 1 1 1 2 1 3 5 6 7 8 8 7 8 8 8 8 9 9
4 5 5 5 6 6 6 6 6 7 7 6 6 5 5 4 4 4 3 3 2 2 3 4 4 4 4 6 6 7 7 7 7 7 8 10 11 11 11 12 12 12 11 11 12 12 13 14 14 13 12 10 9 7 7 8 4 7 7 5 5 5 4 3 2 2 2 1 1 2 1 3 4 7 8 9 10 10 10 9 9 8 9 9 9
5 5 5 5 5 5 5 6 6 6 6 5 5 5 4 4 4 4 4 4 5 4 4 4 5 5 6 6 6 6 6 7 7 7 7 8 9 9 10 11 12 12 12 11 11 12 11 10 13 13 13 11 9 7 13 11 9 4 4 5 5 4 3 3 3 2 2 2 2 2 4 3 8 10 11 14 13 12 12 13 13 14 13 11 10
5 4 4 4 5 5 6 6 6 6 5 5 5 5 4 4 4 5 5 5 5 5 5 5 6 6 7 7 7 7 8 7 7 7 7 7 7 8 10 10 10 11 10 10 11 12 14 14 11 12 12 11 9 13 14 13 11 6 2 3 3 3 3 3 3 2 2 2 2 3 3 3 4 4 7 7 8 13 14 14 13 14 14 15 16
4 3 3 4 4 5 5 5 5 5 5 6 6 5 5 5 5 4 4 5 5 5 5 6 7 8 8 7 8 8 8 8 7 7 7 7 8 8 8 9 10 10 9 10 11 11 12 12 12 12 11 10 10 13 14 13 11 9 5 2 4 3 3 3 3 3 3 3 3 4 4 4 3 4 6 6 7 7 8 13 13 14 15 16 15
2 1 1 2 4 4 5 5 5 4 5 5 6 5 4 4 4 4 5 6 6 6 5 6 7 7 8 8 8 8 8 8 8 7 7 8 7 8 8 8 9 9 10 11 11 12 12 12 12 12 11 10 12 13 15 13 12 10 8 4 3 4 3 3 4 4 4 4 4 5 5 5 5 5 6 6 6 7 9 8 8 9 10 12 18
2 1 3 4 5 5 5 5 5 6 6 5 5 5 5 6 5 6 6 6 6 6 6 7 8 8 8 8 8 8 8 8 9 8 8 8 8 7 7 8 9 10 11 10 11 12 11 10 11 11 11 11 10 15 14 14 12 10 8 5 3 3 4 5 5 5 5 6 6 5 6 6 6 6 5 5 8 9 9 9 9 10 10 11 11
3 4 4 5 6 6 6 6 6 6 6 6 7 6 6 7 7 7 7 7 7 7 8 8 8 8 8 8 8 8 9 9 9 9 9 9 8 7 7 8 8 7 7 8 9 10 11 12 11 11 11 11 11 16 14 14 13 10 10 5 4 5 5 5 5 6 6 6 6 6 6 6 7 7 6 3 5 7 10 11 11 11 11 11 11
3 4 5 5 6 6 6 6 6 6 7 7 7 7 7 8 8 8 8 9 8 8 9 9 8 8 8 8 8 9 9 9 9 10 9 9 8 8 8 8 9 8 8 9 9 10 10 10 10 10 10 9 10 11 13 13 13 11 8 5 4 4 5 5 6 6 7 7 7 7 6 7 8 9 4 4 1 4 10 11 12 12 12 12 12
5 5 6 6 6 6 7 7 8 8 8 8 8 8 8 8 8 8 9 9 9 10 10 10 9 9 8 8 9 10 10 10 9 10 10 8 8 7 8 8 9 8 8 8 8 8 8 8 9 10 10 10 10 10 12 12 12 13 9 4 3 4 5 6 7 7 7 7 7 5 8 10 10 9 3 3 1 5 10 11 12 13 14 13 13
6 6 7 7 7 7 8 9 8 9 8 8 9 10 10 9 9 9 9 9 9 10 10 10 10 9 9 10 10 10 11 11 11 10 9 9 8 8 8 8 9 7 7 7 8 8 8 8 8 9 10 10 10 10 12 13 11 12 8 4 4 5 5 6 6 7 7 7 7 7 11 11 10 10 6 5 5 7 10 12 14 15 15 15 14
8 8 7 8 9 10 9 9 9 10 9 10 10 10 10 10 10 9 10 10 10 11 11 10 10 9 9 9 9 11 11 11 11 10 10 9 7 7 8 9 8 6 7 7 7 8 9 7 6 7 4 5 8 8 11 10 10 10 9 4 4 6 7 7 7 7 8 8 9 9 9 12 12 9 6 6 7 8 9 13 14 14 14 15 13
11 10 9 10 10 10 11 11 10 10 10 10 10 10 11 10 10 11 11 11 11 11 11 10 10 9 10 10 10 10 11 11 10 10 9 9 8 8 8 9 7 6 7 8 8 8 8 8 7 6 6 4 4 6 8 10 8 6 3 3 5 7 7 7 7 8 8 10 10 10 9 5 8 6 6 6 8 8 9 13 15 15 15 14 13
12 12 12 11 11 11 12 12 12 11 11 10 10 11 11 11 11 12 12 11 12 12 11 11 11 10 10 10 11 11 11 10 10 10 10 9 9 9 8 8 6 8 10 9 7 7 8 7 6 6 5 5 3 2 6 8 8 6 5 4 6 5 5 6 8 9 10 10 10 10 11 7 10 7 6 7 9 11 12 14 16 18 17 16 16
15 15 14 13 13 14 14 14 12 11 10 10 11 13 13 12 13 13 12 12 12 11 11 11 11 11 11 11 11 12 11 9 10 10 11 12 8 7 6 6 8 8 9 9 8 8 8 6 5 3 3 4 4 4 4 7 9 7 8 9 6 5 2 5 7 9 10 11 11 11 9 11 17 16 16 16 17 17 16 15 16 15 15 15 15
15 15 15 15 15 14 14 14 13 12 11 11 12 13 13 14 15 12 12 12 12 12 12 12 11 11 11 11 11 12 12 11 11 11 10 9 7 7 6 6 8 9 8 8 7 7 6 6 5 4 4 4 5 5 6 4 8 8 6 4 5 6 6 6 7 9 10 10 10 9 10 17 17 17 17 17 17 17 15 18 18 19 19 17 14
16 16 15 14 15 17 15 15 14 14 13 13 13 14 16 16 14 12 13 13 13 13 12 12 11 11 12 13 12 11 11 11 10 8 6 6 8 8 8 8 8 9 8 8 7 7 7 6 6 6 6 5 5 4 6 7 7 7 7 7 7 7 8 7 7 8 8 8 9 11 14 15 15 17 18 19 17 17 18 17 16 16 15 12 13
17 16 16 16 16 17 17 17 16 15 14 14 14 14 16 15 14 14 14 14 13 13 13 14 14 13 13 12 12 12 11 10 6 7 8 9 10 11 11 12 10 8 8 7 6 7 7 7 6 5 5 5 4 3 3 5 7 8 8 9 8 10 10 11 12 11 13 15 15 15 15 16 16 14 12 11 12 13 14 16 18 17 12 12 11
17 16 16 15 16 16 17 17 17 15 14 14 15 14 15 15 15 15 16 15 15 15 15 14 14 13 13 12 11 10 7 4 6 6 7 8 10 11 13 11 10 9 8 8 8 8 8 8 7 6 4 3 2 1 1 1 2 3 4 1 6 6 11 13 10 7 8 8 8 10 11 14 15 17 18 17 17 16 13 11 9 9 10 10 11
16 16 15 16 16 18 18 18 17 15 14 14 15 16 16 16 16 15 14 14 14 14 14 14 13 12 11 10 9 6 7 6 8 8 8 9 10 9 8 6 5 7 9 8 8 6 6 7 6 5 4 2 2 1 2 3 4 4 5 5 5 6 6 6 7 7 8 10 11 11 11 9 9 9 10 9 9 10 10 11 10 10 11 11 12
17 16 16 16 18 20 20 19 18 16 16 16 17 17 17 18 16 14 13 14 14 15 15 15 13 11 10 6 5 8 8 8 8 8 7 8 9 9 10 9 7 5 6 7 6 7 6 6 5 4 4 3 1 2 5 6 4 5 3 5 5 5 7 7 7 10 10 10 10 10 8 9 9 9 9 9 10 10 10 10 12 11 11 11 11
17 16 17 19 20 20 21 20 19 18 17 17 17 17 17 16 14 13 14 14 14 14 15 14 12 10 8 7 8 7 8 9 10 9 9 9 13 13 8 8 5 8 12 10 9 6 5 5 5 5 6 3 2 5 7 3 2 1 1 4 5 8 8 8 11 13 11 9 8 8 8 9 9 9 10 10 10 10 10 10 10 11 11 11 11
18 19 20 20 20 20 20 20 19 18 18 17 17 16 16 16 15 14 14 15 14 13 12 11 10 8 6 9 9 9 10 9 8 9 8 10 9 11 17 15 10 9 11 13 14 15 14 10 7 4 7 12 11 7 4 3 2 2 3 5 6 7 8 9 11 8 7 7 8 9 9 9 9 10 10 11 11 11 11 11 11 10 10 11 11
Wind_Direction
161 165 167 175 179 167 170 168 167 166 168 173 179 181 181 178 168 167 161 161 172 175 180 183 177 163 161 162 141 143 124 114 102 75 72 74 71 95 100 93 95 85 268 192 163 209 202 179 173 179 171 187 203 215 205 196 192 199 212 217 222 222 221 210 203 197 217 241 206 234 276 288 292 279 265 247 238 231 226 223 224 230 224 216 221
160 165 172 176 184 173 170 174 173 176 180 180 185 182 182 181 177 169 166 170 180 183 172 172 175 176 169 155 148 141 147 157 122 112 89 88 88 73 68 66 73 95 81 69 199 201 177 189 202 180 209 169 196 192 199 178 197 197 195 199 216 214 221 207 197 178 214 240 226 215 253 248 250 276 273 264 244 233 228 227 222 228 221 221 218
181 177 175 179 185 181 178 182 186 190 179 182 183 180 179 181 182 172 175 174 178 182 179 168 158 138 187 119 152 116 63 43 70 83 104 105 86 86 72 66 92 95 95 90 92 115 105 175 167 189 190 146 151 146 147 152 193 212 198 206 197 210 231 196 187 208 195 209 216 236 226 238 218 235 257 285 275 255 240 219 227 225 231 231 217
204 189 183 182 185 186 187 186 186 185 180 180 181 182 178 185 184 177 173 179 177 180 185 151 142 133 105 119 91 67 102 104 98 109 103 107 98 66 73 80 73 79 92 112 105 100 114 120 110 160 130 133 144 132 127 123 171 181 247 222 201 201 218 178 185 192 219 191 212 220 220 267 204 229 247 241 271 260 244 253 236 221 220 217 223
221 204 190 186 188 191 192 189 180 184 185 183 181 182 179 184 183 176 173 178 179 173 169 145 140 143 134 129 124 112 122 135 145 130 125 110 108 107 95 88 93 87 82 67 89 106 115 93 92 92 86 81 124 125 106 100 94 62 126 168 201 230 200 168 180 187 203 223 302 190 187 217 224 131 286 265 234 269 259 233 233 257 244 234 224
237 221 205 196 195 192 192 187 186 188 188 186 181 181 177 181 177 174 173 176 179 175 170 166 169 160 159 164 162 159 152 161 160 143 145 141 105 111 111 98 86 88 84 85 84 99 108 124 118 111 95 90 80 86 91 96 114 132 94 93 138 201 227 177 155 153 142 225 308 294 353 321 310 8 300 254 230 227 280 324 279 229 248 243 242
243 244 232 210 200 195 193 192 190 190 190 179 177 179 178 178 174 174 174 174 178 180 177 180 177 172 174 177 168 163 153 145 112 123 124 110 117 120 109 112 111 98 88 87 89 90 101 106 109 99 104 95 78 68 69 64 64 52 46 86 74 55 357 230 157 151 146 120 112 36 331 273 280 272 278 310 288 319 329 321 327 311 357 266 238
254 242 234 229 214 205 199 193 191 192 179 175 175 175 178 178 173 175 176 175 176 181 184 190 184 179 180 183 168 167 155 132 140 130 117 119 118 128 128 126 119 107 104 99 102 103 99 102 105 99 106 108 112 100 98 93 93 80 58 50 33 27 31 26 38 34 327 92 65 45 16 17 296 270 271 296 297 307 273 211 277 345 315 310 306
267 256 242 229 224 215 206 194 191 184 180 177 178 175 175 175 173 177 179 178 176 178 186 192 193 183 183 180 172 162 145 141 146 141 136 130 130 128 127 118 109 99 95 102 104 105 105 97 93 91 85 96 104 104 94 90 81 76 82 67 59 59 50 36 13 35 18 31 339 4 300 285 255 223 213 228 280 276 271 256 226 203 266 258 239
268 261 257 246 229 220 209 197 184 184 180 173 175 171 173 173 176 181 183 182 178 179 187 193 196 189 189 185 176 163 157 149 158 146 146 151 139 138 137 138 127 121 115 113 113 107 103 104 99 94 88 74 72 82 94 93 93 92 81 79 82 89 75 54 52 61 59 49 329 324 292 323 302 249 222 302 264 230 274 284 279 272 263 229 203
290 273 255 243 239 226 207 196 183 174 172 171 173 174 174 174 179 185 185 185 182 182 188 193 196 195 194 188 182 169 164 162 164 160 158 165 153 153 154 141 139 127 127 125 119 117 112 104 104 104 98 96 96 100 95 98 99 98 90 86 82 79 83 84 81 67 66 79 19 17 20 359 340 332 332 324 319 301 289 278 278 271 267 262 247
307 286 265 231 210 204 196 193 183 175 168 172 173 175 175 176 179 183 184 188 184 185 188 195 198 198 200 192 186 176 168 172 179 173 171 171 162 160 157 151 148 141 143 137 136 129 125 119 117 115 109 106 101 97 103 104 105 102 102 99 95 90 91 93 89 89 83 85 61 38 30 1 349 324 358 308 294 298 296 291 287 289 286 283 289
325 321 284 231 201 187 185 190 187 180 177 177 175 175 176 178 181 179 186 190 187 186 190 195 199 200 202 197 192 181 179 179 183 183 180 179 171 169 165 167 158 161 157 154 148 148 137 138 137 126 119 111 106 103 95 95 97 95 97 99 92 86 80 82 84 73 58 39 82 71 352 357 8 1 306 311 308 302 286 284 285 310 299 297 285
354 357 3 208 191 186 184 186 185 184 179 177 175 175 177 180 177 191 192 190 186 187 192 196 202 203 203 203 196 187 185 183 187 188 185 192 180 175 179 176 173 172 165 164 158 161 152 141 136 127 121 122 118 110 110 109 109 108 106 97 96 91 92 94 93 91 86 80 31 59 31 45 354 319 312 288 296 299 300 306 309 301 297 286 288
17 29 36 67 111 142 156 167 166 173 176 176 176 179 181 180 191 196 192 189 189 188 190 197 201 203 205 206 203 199 190 189 194 192 187 191 188 180 187 181 181 176 170 164 162 164 146 142 138 136 135 130 126 120 115 111 104 100 98 97 90 92 95 83 82 85 87 79 55 6 141 186 313 287 284 289 287 288 288 299 303 305 298 285 287
29 40 49 62 91 106 119 137 154 164 167 171 176 180 182 188 196 198 194 186 189 189 193 195 198 198 202 202 202 200 200 196 198 194 189 192 191 189 188 185 184 173 169 161 169 165 158 150 151 146 145 144 139 137 133 121 119 113 105 102 100 100 102 104 106 96 72 56 37 358 277 44 311 330 280 303 297 304 287 273 268 277 296 300 301
39 41 42 49 71 86 100 120 154 158 168 175 181 186 188 193 193 192 192 186 189 191 194 194 197 200 201 203 203 201 200 201 197 189 188 188 194 197 195 188 179 176 166 165 172 171 167 165 160 155 156 154 150 146 138 133 136 124 112 112 106 101 89 78 62 68 82 51 52 357 339 351 20 329 305 307 297 286 283 288 280 276 279 280 289
55 56 51 43 50 64 76 85 91 128 160 174 187 187 195 202 197 187 191 189 185 186 193 194 195 200 203 211 214 213 207 203 201 192 190 190 193 198 200 189 182 177 169 169 174 174 173 174 168 166 162 161 158 155 151 146 146 134 131 127 114 119 120 108 98 85 66 69 44 15 343 354 19 310 346 311 296 296 284 279 276 269 261 268 279
52 53 55 49 47 52 65 78 78 76 80 92 134 172 198 210 206 195 192 195 187 188 198 197 199 200 210 215 215 216 218 214 207 199 192 192 195 198 198 196 184 178 173 172 176 178 179 179 178 173 168 167 166 162 160 160 155 140 146 135 140 141 122 119 101 94 85 80 59 64 343 14 344 295 281 250 258 261 270 267 264 269 269 267 274
51 57 59 60 57 54 46 59 74 72 69 74 77 54 283 234 226 212 200 197 202 200 198 205 207 214 217 219 219 221 222 220 212 202 199 199 196 197 196 195 191 184 180 178 183 183 182 183 182 179 176 174 172 170 176 163 166 154 156 143 136 147 139 138 129 120 113 107 131 198 36 339 349 305 263 296 281 258 281 285 277 270 267 260 267
50 57 65 67 68 70 67 59 62 61 58 59 69 72 57 19 243 225 217 218 211 212 209 211 212 219 223 223 224 227 227 227 226 214 212 208 204 199 197 194 190 192 185 184 189 188 188 188 186 184 183 180 176 177 177 174 174 161 150 139 148 151 151 136 143 149 144 127 30 341 266 246 273 291 308 294 276 298 276 268 274 279 273 268 266
57 60 63 65 69 74 78 78 73 71 63 56 54 61 55 34 45 120 206 233 226 222 225 230 225 222 224 229 233 234 234 231 227 224 222 220 209 205 200 194 194 192 190 190 193 191 193 192 192 190 188 186 184 180 179 183 178 163 152 153 157 155 148 136 147 142 143 162 176 296 323 325 302 300 288 287 291 286 284 274 262 265 279 282 274
64 69 67 67 66 69 75 76 77 80 82 79 72 64 63 63 64 58 58 42 279 284 277 251 233 229 231 234 235 236 237 233 227 226 224 221 216 209 202 200 198 194 193 194 196 194 195 195 194 194 192 190 189 182 180 184 178 177 171 163 164 158 156 155 159 155 176 128 194 209 213 175 228 267 277 275 282 271 282 293 289 287 288 288 287
73 70 72 71 74 75 72 70 72 69 67 68 75 80 70 51 55 58 47 41 35 8 265 282 281 264 258 255 253 258 253 244 233 227 225 219 218 213 207 207 206 200 197 196 198 198 196 197 196 196 194 189 188 181 182 186 183 182 176 170 168 166 166 167 168 197 279 266 282 260 213 228 248 265 278 294 280 282 275 283 289 277 266 266 271
82 76 73 74 74 67 64 66 66 69 68 64 64 65 70 73 64 62 55 42 40 29 3 304 266 272 269 272 279 277 270 265 258 248 232 225 221 221 215 212 208 206 202 197 199 200 199 198 197 197 193 188 188 184 185 185 179 178 175 169 175 167 170 178 190 211 208 256 276 280 293 299 279 277 273 271 300 301 294 291 289 289 284 283 276
91 86 78 73 70 74 73 66 67 64 71 77 79 73 59 48 51 61 50 37 32 27 15 6 349 313 297 283 262 254 256 255 252 250 249 239 230 225 220 214 212 211 205 202 201 199 203 202 200 198 193 189 188 186 187 184 176 170 169 172 171 173 177 191 193 224 231 234 259 283 287 285 296 285 286 288 285 286 289 284 284 287 292 297 292
85 77 86 86 78 69 68 68 66 71 68 72 64 64 61 56 46 41 44 41 28 16 16 1 358 347 329 305 279 269 266 259 259 258 257 253 245 237 227 220 211 211 207 199 190 195 197 206 204 199 194 190 188 186 185 179 171 170 171 170 173 177 186 181 201 203 201 219 256 275 284 282 279 289 289 285 284 284 276 278 275 275 275 276 277
110 94 81 80 77 72 65 60 56 54 55 53 54 51 54 52 53 48 40 40 32 12 359 355 345 333 326 310 293 291 282 276 273 270 266 260 254 248 243 237 221 214 210 199 197 201 203 204 204 197 191 188 185 185 181 171 173 170 169 171 169 179 179 170 170 182 163 200 209 242 266 288 292 298 318 309 305 289 292 285 280 279 278 277 275
117 98 81 66 64 59 54 49 44 40 43 50 49 51 51 48 45 45 56 58 57 27 340 327 327 324 327 314 311 308 301 287 278 268 260 255 254 251 244 235 224 213 206 207 210 209 206 202 197 189 184 179 180 176 173 173 169 169 170 167 167 166 167 166 173 163 173 193 236 235 256 303 7 346 331 302 293 301 291 279 277 278 275 273 271
124 104 87 73 62 55 51 41 32 26 22 23 30 25 28 32 42 37 47 42 29 4 337 326 316 315 301 295 293 284 281 282 275 265 260 259 255 248 244 241 235 225 216 219 223 217 208 197 186 180 176 169 169 175 109 120 139 168 168 157 159 166 169 166 178 182 192 219 264 276 255 153 225 232 240 239 240 246 249 262 279 284 278 275 271
130 108 93 81 69 54 41 31 27 19 16 16 15 5 11 10 16 1 6 0 354 348 337 332 323 319 309 296 288 286 284 276 272 271 265 254 250 251 244 242 236 234 229 218 212 204 191 196 190 177 169 166 161 127 121 114 100 85 153 156 161 155 163 190 196 203 256 255 270 292 304 200 207 219 221 217 232 238 234 240 248 256 269 276 279
127 109 83 61 49 42 28 18 7 4 2 7 359 343 358 354 359 343 346 342 340 331 328 325 318 311 304 302 300 295 291 290 283 272 263 260 254 251 247 243 239 233 224 210 207 203 203 199 188 177 167 161 144 128 129 128 127 130 94 147 158 168 185 211 205 236 243 268 282 289 286 293 281 295 310 288 235 214 220 229 231 239 243 249 254
119 94 76 56 38 28 20 6 351 359 346 350 344 332 341 341 332 330 329 327 326 326 319 316 313 310 306 301 298 295 293 293 288 280 272 260 253 250 247 243 239 233 229 225 215 203 198 186 180 169 161 147 132 138 133 135 134 130 131 216 178 171 221 207 232 248 265 278 285 288 283 280 290 182 243 269 292 290 219 207 221 226 232 235 240
133 86 46 47 15 5 1 353 339 335 339 330 317 316 315 313 313 320 321 322 321 316 310 303 299 298 298 296 294 293 291 290 288 278 269 261 251 246 246 244 239 230 229 229 222 207 195 185 175 168 159 145 139 146 144 147 146 149 157 218 182 178 232 242 240 250 253 265 269 279 286 284 285 287 292 284 300 298 300 289 269 268 270 237 221
251 290 349 355 343 335 335 330 326 333 312 301 303 311 313 311 319 319 318 314 308 306 303 297 293 294 294 293 291 289 288 286 284 280 271 262 256 249 243 243 238 232 226 224 220 210 197 178 170 166 153 141 140 152 152 150 148 154 163 217 195 189 232 234 235 242 249 254 259 256 265 279 286 291 294 306 295 296 296 290 281 277 271 272 277
341 345 332 326 327 322 315 318 320 303 309 308 309 308 307 307 309 307 306 305 307 300 296 294 290 289 289 291 291 288 283 279 274 271 267 261 254 246 243 243 239 223 211 216 209 195 178 174 167 151 140 139 145 157 153 153 151 155 165 204 200 212 237 245 252 255 253 258 258 263 270 279 290 291 305 153 235 291 293 287 284 279 276 275 273
320 322 316 313 305 304 314 311 302 306 304 303 302 300 297 298 297 299 304 303 301 297 296 295 291 291 292 290 289 286 282 277 275 269 261 256 250 240 237 241 237 225 201 197 191 182 171 160 144 136 127 128 139 161 153 153 155 157 173 216 216 237 251 250 256 263 262 262 262 263 270 287 290 286 319 66 142 265 291 286 285 283 281 281 276
321 313 306 309 312 307 301 301 300 295 290 288 289 288 286 284 285 287 292 294 295 295 295 294 294 297 294 292 288 285 280 273 267 264 260 253 245 240 243 236 232 215 200 192 179 163 153 134 125 125 135 141 152 160 162 160 161 168 198 233 256 266 268 271 273 270 271 270 270 224 248 269 275 279 323 101 86 284 287 289 289 290 288 283 282
313 317 315 313 310 304 295 288 283 281 284 283 282 282 278 275 274 277 281 285 284 286 289 290 292 293 294 292 289 284 279 274 269 265 260 252 242 238 242 232 226 208 189 168 161 150 124 119 123 128 132 139 148 162 169 168 172 177 206 244 274 280 280 276 280 280 276 280 283 258 210 225 256 275 288 266 247 255 278 290 293 291 287 282 282
306 305 310 312 304 296 294 295 293 290 287 284 281 277 274 271 270 271 272 274 277 280 283 284 282 284 287 287 283 278 274 270 269 267 261 252 244 237 232 227 217 184 157 146 124 116 110 96 92 102 96 116 139 163 175 167 171 180 210 273 305 293 283 284 285 291 297 291 288 286 271 209 218 239 261 261 249 242 264 288 290 283 281 278 282
309 309 316 300 301 299 297 295 292 290 287 285 283 277 273 269 268 268 269 269 273 277 278 275 276 277 281 283 282 277 275 271 267 265 263 255 244 236 225 217 184 156 146 138 132 125 120 122 125 133 135 122 124 151 155 168 174 164 154 251 270 287 292 298 299 300 294 294 293 293 293 338 110 144 193 216 232 236 250 280 282 277 273 285 303
301 304 300 300 296 294 289 286 284 284 284 280 277 273 269 269 267 266 268 271 272 273 273 270 266 271 275 279 280 276 272 269 266 263 258 250 241 235 221 202 167 155 149 138 124 119 122 121 129 144 138 130 90 57 142 157 134 143 159 215 268 288 344 305 297 290 291 286 291 295 293 38 48 6 336 304 286 280 274 280 278 278 284 287 281
308 303 299 295 290 286 285 283 281 280 279 276 275 273 271 268 264 265 267 267 270 268 266 264 264 266 271 275 277 275 271 267 263 262 253 243 222 207 173 148 142 139 129 127 126 123 119 115 120 134 132 143 158 161 137 145 155 169 176 204 220 283 341 276 286 287 290 289 287 292 290 16 340 329 317 310 300 291 285 279 281 280 275 274 273
292 291 292 291 283 278 277 278 276 275 273 271 269 270 269 268 267 271 269 269 267 263 260 259 258 262 267 272 273 271 265 262 260 255 244 230 197 179 147 139 133 135 130 120 123 121 117 125 139 154 164 170 176 153 153 166 146 168 172 193 201 225 255 276 298 292 287 287 287 298 329 331 311 299 289 285 284 283 284 283 277 274 272 271 273
286 284 284 280 277 278 278 277 275 272 268 265 263 265 267 266 268 268 267 265 263 259 255 252 252 256 260 267 269 264 262 258 256 240 196 166 160 147 136 140 132 136 131 126 134 135 140 144 146 164 163 159 146 148 142 150 161 170 193 202 208 226 233 238 262 277 279 289 301 297 285 280 281 281 280 275 270 260 253 253 258 261 265 276 274
278 280 280 281 281 279 278 276 274 271 267 263 263 264 265 266 269 266 265 266 265 264 261 258 260 257 258 260 262 261 258 259 232 186 179 179 164 156 150 148 140 136 131 127 132 139 138 148 150 142 134 134 149 173 168 157 174 183 199 191 219 214 224 216 231 264 266 266 261 259 261 260 263 268 279 296 306 301 299 292 286 281 278 275 269
284 284 283 278 276 277 277 276 274 271 269 265 264 261 261 264 265 266 265 264 266 266 263 259 258 256 253 253 253 255 251 206 179 182 179 175 165 162 155 147 141 140 139 139 132 143 153 149 141 130 129 136 148 168 149 70 353 342 334 251 217 221 205 218 236 263 257 268 290 304 305 298 279 273 266 260 260 265 264 264 263 268 277 279 275
282 283 282 280 278 279 280 279 277 276 274 272 269 267 265 265 264 265 265 262 259 257 257 256 251 247 244 243 243 138 161 185 181 168 161 153 148 136 124 107 115 135 140 139 138 130 119 117 118 117 117 143 153 143 65 15 4 344 334 322 316 311 310 322 312 317 325 314 304 295 283 289 302 301 297 306 302 302 300 298 293 290 287 285 281
285 282 278 277 281 281 280 281 279 277 275 273 272 270 270 269 268 265 258 258 258 256 251 249 249 244 242 237 196 183 190 174 168 156 135 132 143 125 116 118 123 126 115 120 113 97 92 103 106 118 148 157 198 100 65 47 35 19 335 330 321 327 332 316 1 357 313 299 300 303 307 303 306 309 308 305 305 304 304 299 296 293 291 289 286
285 284 283 283 282 281 280 279 280 281 281 281 280 278 275 271 267 264 259 252 247 243 242 242 239 235 228 178 177 178 174 160 141 119 97 69 45 52 79 112 103 89 108 105 109 120 131 132 108 70 33 35 60 65 91 99 76 258 240 271 296 307 307 304 310 304 292 296 303 308 309 308 307 308 309 307 306 307 305 302 298 294 289 284 281
286 287 286 283 281 281 281 280 280 280 278 276 275 274 271 267 264 260 257 254 248 243 242 240 228 220 168 167 173 163 157 138 121 116 115 110 106 67 51 51 70 104 100 90 83 75 68 67 99 117 75 69 84 96 102 104 187 213 286 293 294 300 299 296 294 304 304 311 313 313 311 309 307 306 306 307 308 305 303 302 301 299 294 289 284